AO-07 1 07530U 74089B 26257.54007877 -.00000046 00000-0 36753-5 0 9993 2 07530 101.9919 271.7209 0012040 322.1588 206.0208 12.53699636371718 UO-11 1 14781U 84021B 26257.61916841 .00000985 00000-0 10536-3 0 9994 2 14781 97.8169 222.2563 0006105 243.8111 116.2480 14.90990555270454 LO-19 1 20442U 90005G 26257.48512804 .00000054 00000-0 36164-4 0 9993 2 20442 98.8823 281.7394 0010636 307.5219 52.4997 14.34143814915193 AO-27 1 22825U 93061C 26257.43183635 .00000066 00000-0 42092-4 0 9996 2 22825 98.6797 324.7758 0008151 190.9932 169.1074 14.30961131719768 FO-29 1 24278U 96046B 26257.54820134 -.00000014 00000-0 22835-4 0 9997 2 24278 98.5169 94.1692 0349149 224.4162 132.8488 13.53277998485257 GO-32 1 25397U 98043D 26257.41299807 .00000025 00000-0 30886-4 0 9998 2 25397 99.0152 252.4556 0001057 13.7115 346.4091 14.24442711464038 ISS 1 25544U 98067A 26257.33674862 .00004921 00000-0 97059-4 0 9991 2 25544 51.6309 218.8707 0004933 140.1115 220.0237 15.49109585585574 NO-44 1 26931U 01043C 26256.72239409 .00000058 00000-0 52735-4 0 9995 2 26931 67.0528 15.2724 0005736 272.4834 87.5611 14.31983338303123 SO-50 1 27607U 02058C 26257.29580827 .00000780 00000-0 10940-3 0 9992 2 27607 64.5515 213.2481 0072027 246.1134 113.2415 14.83210726277670 CO-55 1 27844U 03031E 26257.46130458 .00000192 00000-0 10189-3 0 9999 2 27844 98.6770 264.9125 0008427 289.0249 71.0017 14.24381067204387 RS-22 1 27939U 03042A 26257.64303377 .00000751 00000-0 12362-3 0 9994 2 27939 98.3474 84.5548 0011175 351.6964 73.0743 14.73599550228723 CO-65 1 32785U 08021C 26257.58672523 .00003914 00000-0 24374-3 0 9996 2 32785 97.8375 240.9600 0010412 85.5140 274.7277 15.10158345998687 CO-66 1 32791U 08021J 26257.49190771 .00015839 00000-0 46048-3 0 9994 2 32791 97.7563 259.8729 0003053 42.2885 317.8593 15.35546557 971 RS-30 1 32953U 08025A 26257.59011274 .00000082 00000-0 51836-3 0 9994 2 32953 82.5024 299.8381 0020694 115.6735 244.6485 12.43183200830800 SRMSAT 1 37841U 11058D 26257.07776403 .00000374 00000-0 59220-4 0 9990 2 37841 19.9710 241.4257 0011984 101.9182 322.2174 14.11592249770397 ZACUBE-1 1 39417U 13066B 26256.84340603 .00004466 00000-0 34173-3 0 9990 2 39417 97.8139 219.6344 0039854 316.6251 43.1839 15.01798687694037 Delfi-N3xt 1 39428U 13066N 26257.22923041 .00004179 00000-0 35872-3 0 9996 2 39428 97.8290 177.4962 0071376 270.5488 88.7554 14.96078789687936 GOMX-1 1 39430U 13066Q 26257.58553654 .00001380 00000-0 21164-3 0 9997 2 39430 97.6433 92.4140 0128579 149.5948 211.2798 14.69693358683040 LO-74 1 39440U 13066AA 26257.13862932 .00003454 00000-0 31672-3 0 9990 2 39440 97.8982 206.5592 0058666 92.2567 268.5372 14.94259901690277 AO-73 1 39444U 13066AE 26257.38182517 .00005083 00000-0 30804-3 0 9991 2 39444 97.8384 230.8097 0033426 259.5309 100.2152 15.10585012693125 DTUSAT-2 1 40030U 14033W 26255.98513021 .00004682 00000-0 24761-3 0 9990 2 40030 98.0914 259.3803 0006209 302.4998 57.5632 15.15999708665988 LILACSAT-2 1 40908U 15049K 26257.58457762 .00015577 00000-0 24002-3 0 9992 2 40908 97.4558 297.9643 0004587 287.9301 72.1452 15.54264617609620 Lapan A3 1 41603U 16040E 26257.59556161 .00002936 00000-0 92570-4 0 9992 2 41603 97.1566 250.8699 0011823 60.3065 299.9354 15.33594582568515 CAS-2T 1 41847U 16066G 26257.23211286 .00000860 00000-0 13003-3 0 9994 2 41847 98.3755 331.9432 0340498 219.1767 138.4327 14.44840123517652 TechnoSat 1 42829U 17042E 26257.19807953 .00002284 00000-0 16292-3 0 9992 2 42829 97.4394 51.5594 0018200 146.3560 213.8826 15.05392742500090 AO-91 1 43017U 17073E 26257.40839724 .00006482 00000-0 27555-3 0 9999 2 43017 97.4553 122.8013 0148012 20.8764 339.8426 15.13898921478887 S-Net D 1 43186U 18014G 26256.71615829 .00003337 00000-0 17035-3 0 9991 2 43186 97.5254 160.9482 0009835 74.6778 285.5542 15.17369169472181 S-Net B 1 43187U 18014H 26257.19103938 .00003450 00000-0 17612-3 0 9995 2 43187 97.5258 161.4092 0010362 69.4341 290.8003 15.17340993472257 S-Net A 1 43188U 18014J 26256.97833205 .00003858 00000-0 19633-3 0 9995 2 43188 97.5270 161.4238 0010324 70.5745 289.6603 15.17380312472221 S-Net C 1 43189U 18014K 26257.19545971 .00003538 00000-0 18053-3 0 9991 2 43189 97.5287 161.7281 0011571 63.0640 297.1774 15.17331282470804 Ten-Koh 1 43677U 18084G 26256.79556891 .00001092 00000-0 85491-4 0 9992 2 43677 98.0738 92.9082 0009469 170.8287 189.3111 15.03243105429479 PO-101 1 43678U 18084H 26257.58892425 .00001270 00000-0 10533-3 0 9999 2 43678 98.1170 97.7328 0011557 228.5182 131.5049 15.00725797429628 QO-100 1 43700U 18090A 26257.22385742 .00000136 00000-0 00000-0 0 9997 2 43700 0.0145 117.7179 0002579 87.2981 254.5921 1.00274976 28573 MinXSS-2 1 43758U 18099A 26257.44077921 .00036469 00000-0 57983-3 0 9993 2 43758 97.4451 336.7134 0005111 291.5472 68.5236 15.53218013427950 AO-95 1 43770U 18099N 26257.62311903 .00008878 00000-0 32330-3 0 9990 2 43770 97.4286 317.6039 0009013 41.0365 319.1551 15.28407823426872 SNUSat 2 1 43782U 18099AA 26257.39122103 .00005573 00000-0 23954-3 0 9990 2 43782 97.3966 309.4360 0009437 352.4394 7.6699 15.23025775426606 SnugLite 1 43784U 18099AC 26257.59583044 .00008774 00000-0 31553-3 0 9999 2 43784 97.3772 311.0608 0002220 10.3241 349.8044 15.28853238426974 ITASat 1 1 43786U 18099AE 26257.11805822 .00005342 00000-0 25051-3 0 9994 2 43786 97.3936 306.8722 0013328 47.6971 312.5391 15.20014418426413 EAGLET 1 1 43790U 18099AJ 26257.58684779 .00002759 00000-0 15747-3 0 9996 2 43790 97.4140 304.8795 0012008 43.3552 316.8622 15.13507679425855 ESEO 1 43792U 18099AL 26257.37731891 .00001649 00000-0 12187-3 0 9995 2 43792 97.3907 290.9273 0012663 34.8285 325.3768 15.04465863425212 JO-97 1 43803U 18099AX 26257.40456493 .00013172 00000-0 37443-3 0 9990 2 43803 97.4033 320.6747 0004078 322.4190 37.6768 15.36281570427317 Suomi 100 1 43804U 18099AY 26256.73105045 .00008405 00000-0 28940-3 0 9995 2 43804 97.4092 316.8697 0008513 334.6156 25.4665 15.30262833426954 ISAT 1 43879U 18111D 26256.78317077 .00446750 82188-4 11594-2 0 9993 2 43879 97.5792 200.3334 0007766 127.9061 232.2917 15.94996121425126 UWE-4 1 43880U 18111E 26256.79245483 .00037613 00000-0 63234-3 0 9999 2 43880 97.5820 189.6194 0007371 27.6586 332.5056 15.51636958424492 Prox-1 1 44339U 19036A 26257.23347634 .00010831 00000-0 10021-2 0 9995 2 44339 23.9940 238.5326 0005014 352.8597 7.1831 14.92470762386784 Taurus 1 1 44530U 19059C 26257.59903887 .00003892 00000-0 61595-3 0 9992 2 44530 98.6494 68.0804 0008911 37.1520 323.0301 14.72883218371806 TO-108 1 44881U 19093C 26257.63421118 .00001111 00000-0 13102-3 0 9999 2 44881 97.7460 327.6546 0014161 146.8904 213.3201 14.86635171364702 RS-44 1 44909U 19096E 26257.52050106 .00000013 00000-0 15325-4 0 9996 2 44909 82.5172 280.3462 0216440 295.6457 62.2427 12.79749361313776 SALSAT 1 46495U 20068K 26257.26571775 .00005740 00000-0 19484-3 0 9991 2 46495 97.8883 265.8489 0009221 1.1573 358.9687 15.30910957328982 CSS (TIANHE-1) 1 48274U 21035A 26257.58463244 .00018605 00000-0 22780-3 0 9996 2 48274 41.4676 139.2408 0002663 278.8217 81.2320 15.59928303307128 TeikyoSat 4 1 49396U 21102B 26257.07210072 .00001382 00000-0 89264-4 0 9995 2 49396 97.3629 283.0948 0011702 355.1823 4.9292 15.09771114266131 Z-Sat 1 49399U 21102E 26257.54963263 .00003408 00000-0 16637-3 0 9991 2 49399 97.3264 290.1664 0014867 298.6870 61.2870 15.18850715267001 KOSEN 1 1 49402U 21102H 26257.36975564 .00005255 00000-0 19518-3 0 9996 2 49402 97.3104 297.8260 0011664 248.4961 111.5035 15.27925970267638 HO-113 1 50466U 21131B 26257.60313410 .00000385 00000-0 13242-3 0 9990 2 50466 98.4979 349.5066 0004060 173.2704 186.8540 14.41424867247990 SNUGLITE 2 1 52899U 22065F 26257.12967346 .00000711 00000-0 14331-3 0 9992 2 52899 98.2334 41.8751 0008691 103.2455 256.9717 14.64484178224017 UmKA 1 (RS40S) 1 57172U 23091G 26257.61593191 .00004448 00000-0 19941-3 0 9991 2 57172 97.4954 315.9794 0013013 160.6053 199.5680 15.21672188177609 CubeBel-2 (EU11S) 1 57175U 23091K 26257.51318666 .00010084 00000-0 33796-3 0 9992 2 57175 97.4956 321.6116 0010154 151.2949 208.8853 15.31072605177963 RS-38S 1 57189U 23091Z 26257.45087763 .00014103 00000-0 37159-3 0 9994 2 57189 97.5006 328.8549 0008088 109.5644 250.6475 15.38602116178403 SONATE-2 1 59112U 24043Q 26257.24223457 .00044891 00000-0 44284-3 0 9993 2 59112 97.5625 53.6316 0005343 228.2755 131.8048 15.65799600141799 GRBBeta 1 60237U 24128C 26257.53551428 .00002351 00000-0 16864-3 0 9999 2 60237 61.9881 262.6541 0027536 154.3428 205.9038 15.07170935119735 Curium One 1 60242U 24128H 26257.38571247 .00005583 00000-0 31908-3 0 9995 2 60242 61.9767 249.5688 0026650 149.3918 210.8740 15.13614223119953 ROBUSTA-3A 1 60243U 24128J 26257.53451726 .00004225 00000-0 25053-3 0 9998 2 60243 61.9848 252.0204 0028657 146.1447 214.1486 15.12709545119931 CatSat 1 60246U 24125J 26257.36025011 .00090279 00000-0 69832-3 0 9990 2 60246 97.1950 111.7636 0015239 199.4227 160.6457 15.71456844121334 AO-123 1 61781U 24199AY 26257.40038133 .00006324 00000-0 17744-3 0 9993 2 61781 97.2844 125.2724 0013160 356.3714 3.7432 15.36835594147620 LASARsat 1 62391U 24247Q 26256.90123737 .00035804 00000-0 58455-3 0 9993 2 62391 44.9714 121.6324 0009070 196.0682 163.9923 15.51965735 97072 CroCube 1 62394U 24247T 26256.63683198 .00042932 00000-0 62992-3 0 9999 2 62394 44.9680 118.6820 0009410 202.9408 157.1066 15.54832267 97085 JINJUSat 1B 1 63210U 25052A 26257.20501510 .00013312 00000-0 38105-3 0 9992 2 63210 97.3867 154.1841 0005035 110.4742 249.7042 15.36055518 83750 NUSHSAT 1 1 63211U 25052B 26256.69553175 .00017314 00000-0 44664-3 0 9992 2 63211 97.3843 154.5876 0004715 112.7364 247.4381 15.39224729 83741 TEVEL2-4 1 63213U 25052D 26257.16710487 .00014626 00000-0 39934-3 0 9995 2 63213 97.3762 153.8308 0004121 120.1634 240.0020 15.37512722 83772 TEVEL2-5 1 63214U 25052E 26256.67827196 .00016374 00000-0 45012-3 0 9993 2 63214 97.3761 153.2599 0003958 122.7443 237.4184 15.37274978 83691 TEVEL2-6 1 63215U 25052F 26257.14822892 .00014678 00000-0 40406-3 0 9992 2 63215 97.3764 153.7166 0003909 121.9941 238.1684 15.37256625 83760 TEVEL2-1 1 63217U 25052H 26256.69026919 .00014307 00000-0 40231-3 0 9994 2 63217 97.3738 152.7684 0003718 133.3229 226.8326 15.36601017 83676 TEVEL2-3 1 63218U 25052J 26257.13691659 .00014256 00000-0 39975-3 0 9990 2 63218 97.3740 153.2516 0003583 130.0894 230.0664 15.36689120 83743 TEVEL2-2 1 63219U 25052K 26256.68989635 .00014209 00000-0 39941-3 0 9995 2 63219 97.3739 152.7722 0003715 133.6739 226.4814 15.36614752 83676 TEVEL2-9 1 63237U 25052AD 26257.44020036 .00013153 00000-0 39658-3 0 9993 2 63237 97.3795 152.6908 0006082 163.0456 197.0992 15.34415042 83709 TEVEL2-7 1 63238U 25052AE 26256.65221529 .00013320 00000-0 40647-3 0 9992 2 63238 97.3799 151.7775 0006007 167.3882 192.7513 15.34030967 83578 TEVEL2-8 1 63239U 25052AF 26257.50920075 .00013336 00000-0 40679-3 0 9992 2 63239 97.3801 152.6084 0006101 163.8267 196.3172 15.34042962 83703 SPIRONE 1 66657U 25274H 26257.55151447 .00001917 00000-0 18560-3 0 9995 2 66657 97.7479 185.5803 0013619 78.2122 282.0624 14.93842670 43563 K-HERO 1 66660U 25274L 26257.26408343 .00001347 00000-0 13071-3 0 9996 2 66660 97.7486 185.5223 0015451 82.6388 277.6587 14.94234975 43539 SNUGLITE-III DURI 1 66661U 25274M 26257.51836132 .00001019 00000-0 10009-3 0 9990 2 66661 97.7484 185.7936 0016073 82.6528 277.6518 14.94245093 43579 SAKHACUBE-CHOLBON 1 67290U 25313AU 26256.18170051 .00006377 00000-0 24832-3 0 9997 2 67290 97.3865 330.1704 0009965 52.8554 307.3593 15.26292868 39393 RS95S (QMR-KWT-2) 1 67291U 25313AV 26256.46305240 .00011024 00000-0 40121-3 0 9993 2 67291 97.3861 330.8513 0009260 49.9472 310.2578 15.28360312 39465 Ten-Koh2 1 68261U 25241B 26257.04423650 .00004861 00000-0 20622-3 0 9997 2 68261 51.6603 256.4037 0008199 78.6237 281.5662 15.24862942 28466 JACK-002 1 68417U 26067B 26256.84331902 .00005804 00000-0 26991-3 0 9995 2 68417 97.4667 214.4420 0001961 29.1087 331.0258 15.20345854 25419 DISCO 2 1 68431U 26067R 26256.87646161 .00006908 00000-0 32149-3 0 9998 2 68431 97.4700 214.4749 0003908 66.8999 293.2648 15.20248365 25411 HADES-SA (SpinnyONE) 1 68446U 26067AG 26257.13278174 .00016781 00000-0 74041-3 0 9996 2 68446 97.4486 214.3133 0008725 115.2575 244.9566 15.21806279 25445 PARUS-6U1 1 68456U 26067AS 26257.11586943 .00004798 00000-0 23699-3 0 9999 2 68456 97.4652 214.2069 0007318 108.3154 251.8876 15.18319912 25429 SAL-E 1 68458U 26067AU 26257.15375359 .00006927 00000-0 33524-3 0 9996 2 68458 97.4575 214.1450 0007477 115.2102 244.9909 15.18870070 25432 FSI-SAT 2 1 68792U 26088A 26256.38876209 .00002838 00000-0 19101-3 0 9996 2 68792 97.5192 43.5366 0014716 160.3638 199.8160 15.07427793 21574 OrigamiSat 2 1 68795U 26088D 26257.37902558 .00009657 00000-0 58785-3 0 9993 2 68795 97.5181 44.9723 0015436 130.5800 229.6776 15.10517855 21755 ARICA 2 1 68796U 26088E 26257.23254768 .00004072 00000-0 26054-3 0 9992 2 68796 97.5188 44.6937 0016472 130.4520 229.8149 15.09031668 21720 WASEDA-SAT-ZERO-II 1 68797U 26088F 26256.94283482 .00004839 00000-0 30495-3 0 9990 2 68797 97.5187 44.4602 0016356 130.5445 229.7211 15.09503497 21683 MANGARO-II-Piscus 1 68798U 26088G 26257.13334494 .00002652 00000-0 16954-3 0 9998 2 68798 97.5200 44.6873 0019965 133.2204 227.0696 15.09323781 21712 CO-128 1 69912U 26156AV 26257.53910626 .00001319 00000-0 13920-3 0 9993 2 69912 97.7476 156.7556 0000970 286.2716 73.8396 14.90943370 10313 MARINA 1 69920U 26156BD 26256.67967705 .00001885 00000-0 19066-3 0 9991 2 69920 97.7445 156.0100 0006038 294.2224 65.8364 14.92160181 10195 IO-86 1 40931U 26199.45381863 .00000000 00000-0 77536-4 0 07 2 40931 6.0006 322.6653 0012733 338.8432 273.6875 14.79294310 03 LILIUM-4 1 71922C 26067AC 26089.50133053 -.00014632 00000 0 -74472-3 0 04 2 71922 97.4497 49.1617 0004341 5.9603 355.7042 15.16896692 16